{"data":{"norad_id":56046,"epoch":"2026-09-20T04:34:44.751072Z","epoch_age_seconds":44911,"freshness":"FRESH","line1":"1 56046U 23043A   26263.19079573 -.00000009  00000+0 -55863-4 0  9994","line2":"2 56046  87.9156 209.9102 0001888  81.1198 279.0147 13.16593423171461","mean_motion":13.16593423,"eccentricity":0.0001888,"inclination_deg":87.9156,"raan_deg":209.9102,"arg_perigee_deg":81.1198,"mean_anomaly_deg":279.0147,"bstar":-5.5863e-5,"rev_number":17146,"period_min":109.37317282953,"perigee_km":1196.32953708,"apogee_km":1199.1901957368,"semimajor_km":7575.8968664084,"source":"CELESTRAK","updated_at":"2026-09-20T09:00:44.786153Z"}}